Time,TemperatureF,DewpointF,PressureIn,WindDirection,WindDirectionDegrees,WindSpeedMPH,WindSpeedGustMPH,Humidity,HourlyPrecipIn,Conditions,Clouds,dailyrainin,SoftwareType,DateUTC
2013-03-13 00:00:00,58.5,57.8,30.04,SW,228,0.0,7.0,98,0.00,,---,0.00,VWS V14.01,2013-03-13 04:00:00,
2013-03-13 00:05:00,58.1,57.5,30.04,WNW,292,6.2,6.4,98,0.00,,---,0.00,VWS V14.01,2013-03-13 04:05:00,
2013-03-13 00:10:00,57.2,56.6,30.04,WNW,285,4.3,4.3,98,0.00,,---,0.00,VWS V14.01,2013-03-13 04:10:00,
2013-03-13 00:15:00,57.9,57.3,30.04,WNW,302,2.9,2.9,98,0.00,,---,0.00,VWS V14.01,2013-03-13 04:15:00,
2013-03-13 00:20:00,57.9,57.3,30.04,WNW,290,3.4,3.6,98,0.00,,---,0.00,VWS V14.01,2013-03-13 04:20:00,
2013-03-13 00:25:00,57.8,57.2,30.03,NW,304,4.1,4.1,98,0.00,,---,0.00,VWS V14.01,2013-03-13 04:25:00,
2013-03-13 00:30:00,57.7,57.1,30.04,West,270,0.0,0.0,98,0.00,,---,0.00,VWS V14.01,2013-03-13 04:30:00,
2013-03-13 00:35:00,57.8,57.2,30.04,North,352,1.7,1.7,98,0.00,,---,0.00,VWS V14.01,2013-03-13 04:35:00,
2013-03-13 00:40:00,57.7,57.1,30.04,North,350,2.4,2.4,98,0.00,,---,0.00,VWS V14.01,2013-03-13 04:40:00,
2013-03-13 00:45:00,57.2,56.6,30.04,NNW,346,3.5,3.9,98,0.00,,---,0.00,VWS V14.01,2013-03-13 04:45:00,
2013-03-13 00:50:00,57.2,56.6,30.04,NNW,345,0.0,0.0,98,0.00,,---,0.00,VWS V14.01,2013-03-13 04:50:00,
2013-03-13 00:55:00,57.0,56.4,30.04,NNW,345,0.0,3.2,98,0.00,,---,0.00,VWS V14.01,2013-03-13 04:55:00,
2013-03-13 01:00:00,57.4,56.8,30.05,NNW,343,0.0,2.0,98,0.00,,---,0.00,VWS V14.01,2013-03-13 05:00:00,
2013-03-13 01:05:00,57.1,56.5,30.05,NNW,345,2.7,2.9,98,0.00,,---,0.00,VWS V14.01,2013-03-13 05:05:00,
2013-03-13 01:10:00,56.9,56.2,30.04,NNW,346,3.0,4.3,98,0.00,,---,0.00,VWS V14.01,2013-03-13 05:10:00,
2013-03-13 01:15:00,57.1,56.4,30.05,NNW,342,5.8,7.5,98,0.00,,---,0.00,VWS V14.01,2013-03-13 05:15:00,
2013-03-13 01:20:00,56.7,56.0,30.05,NNW,342,2.4,4.2,98,0.00,,---,0.00,VWS V14.01,2013-03-13 05:20:00,
2013-03-13 01:25:00,56.9,56.2,30.05,NNW,340,3.1,3.1,97,0.00,,---,0.00,VWS V14.01,2013-03-13 05:25:00,
2013-03-13 01:30:00,56.7,56.0,30.04,NNW,336,4.8,6.5,97,0.00,,---,0.00,VWS V14.01,2013-03-13 05:30:00,
2013-03-13 01:35:00,56.2,55.5,30.04,NW,325,0.0,2.5,98,0.00,,---,0.00,VWS V14.01,2013-03-13 05:35:00,
2013-03-13 01:40:00,56.6,55.9,30.05,NNW,338,5.0,5.0,97,0.00,,---,0.00,VWS V14.01,2013-03-13 05:40:00,
2013-03-13 01:45:00,55.7,54.9,30.05,NNW,336,3.9,4.5,97,0.00,,---,0.00,VWS V14.01,2013-03-13 05:45:00,
2013-03-13 01:50:00,55.4,54.6,30.04,North,1,1.4,4.8,97,0.00,,---,0.00,VWS V14.01,2013-03-13 05:50:00,
2013-03-13 01:55:00,55.9,55.0,30.05,North,1,5.2,5.8,97,0.00,,---,0.00,VWS V14.01,2013-03-13 05:55:00,
2013-03-13 02:00:00,55.5,54.6,30.05,North,357,2.1,3.2,97,0.00,,---,0.00,VWS V14.01,2013-03-13 06:00:00,
2013-03-13 02:05:00,55.3,54.3,30.05,North,356,2.2,2.8,96,0.00,,---,0.00,VWS V14.01,2013-03-13 06:05:00,
2013-03-13 02:10:00,55.2,54.2,30.05,North,349,2.9,4.2,96,0.00,,---,0.00,VWS V14.01,2013-03-13 06:10:00,
2013-03-13 02:15:00,55.7,54.7,30.05,NW,308,3.3,6.2,96,0.00,,---,0.00,VWS V14.01,2013-03-13 06:15:00,
2013-03-13 02:20:00,55.7,54.6,30.05,NNW,340,2.0,4.2,96,0.00,,---,0.00,VWS V14.01,2013-03-13 06:20:00,
2013-03-13 02:25:00,55.5,54.4,30.05,NW,319,1.1,4.5,96,0.00,,---,0.00,VWS V14.01,2013-03-13 06:25:00,
2013-03-13 02:30:00,55.3,54.2,30.05,NW,307,1.9,3.1,96,0.00,,---,0.00,VWS V14.01,2013-03-13 06:30:00,
2013-03-13 02:35:00,55.4,54.3,30.05,NW,322,0.0,0.0,96,0.00,,---,0.00,VWS V14.01,2013-03-13 06:35:00,
2013-03-13 02:40:00,55.0,53.9,30.05,NW,322,0.0,0.0,96,0.00,,---,0.00,VWS V14.01,2013-03-13 06:40:00,
2013-03-13 02:45:00,55.0,54.0,30.05,NNW,342,2.5,6.0,96,0.00,,---,0.00,VWS V14.01,2013-03-13 06:45:00,
2013-03-13 02:50:00,54.6,53.6,30.05,NNW,333,2.6,4.5,96,0.00,,---,0.00,VWS V14.01,2013-03-13 06:50:00,
2013-03-13 02:55:00,54.7,53.7,30.05,WNW,294,2.5,3.8,96,0.00,,---,0.00,VWS V14.01,2013-03-13 06:55:00,
2013-03-13 03:00:00,54.5,53.4,30.05,NW,318,1.9,2.5,96,0.00,,---,0.00,VWS V14.01,2013-03-13 07:00:00,
2013-03-13 03:05:00,53.9,52.8,30.04,North,8,1.7,2.3,96,0.00,,---,0.00,VWS V14.01,2013-03-13 07:05:00,
2013-03-13 03:10:00,53.8,52.6,30.04,North,3,0.0,0.7,96,0.00,,---,0.00,VWS V14.01,2013-03-13 07:10:00,
2013-03-13 03:15:00,54.2,53.0,30.04,North,3,1.6,1.6,96,0.00,,---,0.00,VWS V14.01,2013-03-13 07:15:00,
2013-03-13 03:20:00,54.1,52.9,30.04,North,4,1.4,3.2,96,0.00,,---,0.00,VWS V14.01,2013-03-13 07:20:00,
2013-03-13 03:25:00,54.1,52.9,30.04,North,4,0.9,2.4,96,0.00,,---,0.00,VWS V14.01,2013-03-13 07:25:00,
2013-03-13 03:30:00,53.9,52.7,30.04,North,3,0.6,1.4,96,0.00,,---,0.00,VWS V14.01,2013-03-13 07:30:00,
2013-03-13 03:35:00,53.5,52.3,30.04,North,3,0.0,0.0,96,0.00,,---,0.00,VWS V14.01,2013-03-13 07:35:00,
2013-03-13 03:40:00,53.5,52.3,30.04,North,3,0.0,0.0,96,0.00,,---,0.00,VWS V14.01,2013-03-13 07:40:00,
2013-03-13 03:45:00,53.2,52.0,30.04,North,3,0.0,0.0,96,0.00,,---,0.00,VWS V14.01,2013-03-13 07:45:00,
2013-03-13 03:50:00,53.5,52.2,30.04,North,3,0.0,1.2,95,0.00,,---,0.00,VWS V14.01,2013-03-13 07:50:00,
2013-03-13 03:55:00,53.1,51.8,30.04,North,3,0.0,0.0,95,0.00,,---,0.00,VWS V14.01,2013-03-13 07:55:00,
2013-03-13 04:00:00,52.8,51.3,30.04,North,356,0.9,1.2,95,0.00,,---,0.00,VWS V14.01,2013-03-13 08:00:00,
2013-03-13 04:05:00,53.3,51.7,30.04,North,356,2.7,3.0,94,0.00,,---,0.00,VWS V14.01,2013-03-13 08:05:00,
2013-03-13 04:10:00,53.3,51.7,30.04,North,354,2.2,3.1,94,0.00,,---,0.00,VWS V14.01,2013-03-13 08:10:00,
2013-03-13 04:15:00,53.1,51.2,30.04,North,353,4.0,4.2,93,0.00,,---,0.00,VWS V14.01,2013-03-13 08:15:00,
2013-03-13 04:20:00,53.1,51.0,30.05,North,352,1.3,2.6,92,0.00,,---,0.00,VWS V14.01,2013-03-13 08:20:00,
2013-03-13 04:25:00,52.4,49.9,30.04,North,352,3.2,4.0,91,0.00,,---,0.00,VWS V14.01,2013-03-13 08:25:00,
2013-03-13 04:30:00,52.4,49.6,30.05,North,352,3.8,6.0,90,0.00,,---,0.00,VWS V14.01,2013-03-13 08:30:00,
2013-03-13 04:35:00,53.1,50.0,30.05,North,352,3.5,4.5,89,0.00,,---,0.00,VWS V14.01,2013-03-13 08:35:00,
2013-03-13 04:40:00,53.1,49.9,30.04,North,350,2.4,3.7,89,0.00,,---,0.00,VWS V14.01,2013-03-13 08:40:00,
2013-03-13 04:45:00,53.0,49.6,30.05,North,350,2.4,4.2,88,0.00,,---,0.00,VWS V14.01,2013-03-13 08:45:00,
2013-03-13 04:50:00,53.0,49.5,30.05,NNW,347,2.9,3.8,88,0.00,,---,0.00,VWS V14.01,2013-03-13 08:50:00,
2013-03-13 04:55:00,53.1,49.6,30.05,NNW,347,0.4,2.9,88,0.00,,---,0.00,VWS V14.01,2013-03-13 08:55:00,
2013-03-13 05:00:00,52.9,49.2,30.05,NNW,345,5.7,5.7,87,0.00,,---,0.00,VWS V14.01,2013-03-13 09:00:00,
2013-03-13 05:05:00,52.9,49.0,30.05,NW,308,1.9,1.9,87,0.00,,---,0.00,VWS V14.01,2013-03-13 09:05:00,
2013-03-13 05:10:00,52.7,48.7,30.05,NNW,329,1.9,2.4,86,0.00,,---,0.00,VWS V14.01,2013-03-13 09:10:00,
2013-03-13 05:15:00,52.4,48.1,30.05,NW,309,1.9,4.6,85,0.00,,---,0.00,VWS V14.01,2013-03-13 09:15:00,
2013-03-13 05:20:00,52.5,48.1,30.06,NW,325,4.0,6.4,85,0.00,,---,0.00,VWS V14.01,2013-03-13 09:20:00,
2013-03-13 05:25:00,52.4,48.0,30.06,NNW,347,3.2,4.9,85,0.00,,---,0.00,VWS V14.01,2013-03-13 09:25:00,
2013-03-13 05:30:00,51.9,47.2,30.06,NNW,335,4.0,7.8,84,0.00,,---,0.00,VWS V14.01,2013-03-13 09:30:00,
2013-03-13 05:35:00,51.6,46.7,30.06,NNW,340,3.5,4.2,83,0.00,,---,0.00,VWS V14.01,2013-03-13 09:35:00,
2013-03-13 05:40:00,51.5,46.3,30.06,NW,318,3.0,4.2,82,0.00,,---,0.00,VWS V14.01,2013-03-13 09:40:00,
2013-03-13 05:45:00,52.3,47.0,30.07,NW,318,1.2,4.3,82,0.00,,---,0.00,VWS V14.01,2013-03-13 09:45:00,
2013-03-13 05:50:00,51.8,46.4,30.07,NW,316,4.2,5.0,82,0.00,,---,0.00,VWS V14.01,2013-03-13 09:50:00,
2013-03-13 05:55:00,51.9,46.3,30.07,North,352,5.0,5.0,81,0.00,,---,0.00,VWS V14.01,2013-03-13 09:55:00,
2013-03-13 06:00:00,51.9,46.2,30.07,NNW,333,2.9,5.2,81,0.00,,---,0.00,VWS V14.01,2013-03-13 10:00:00,
2013-03-13 06:05:00,52.0,46.2,30.08,NNW,335,3.7,5.1,80,0.00,,---,0.00,VWS V14.01,2013-03-13 10:05:00,
2013-03-13 06:10:00,51.3,45.4,30.08,NNW,332,2.5,3.5,80,0.00,,---,0.00,VWS V14.01,2013-03-13 10:10:00,
2013-03-13 06:15:00,51.2,45.2,30.08,NW,325,3.0,3.9,80,0.00,,---,0.00,VWS V14.01,2013-03-13 10:15:00,
2013-03-13 06:20:00,51.2,45.2,30.08,NW,319,4.0,4.3,80,0.00,,---,0.00,VWS V14.01,2013-03-13 10:20:00,
2013-03-13 06:25:00,51.7,45.6,30.09,NW,311,1.7,4.9,80,0.00,,---,0.00,VWS V14.01,2013-03-13 10:25:00,
2013-03-13 06:30:00,51.0,44.9,30.09,NNW,332,5.5,6.2,79,0.00,,---,0.00,VWS V14.01,2013-03-13 10:30:00,
2013-03-13 06:35:00,50.8,44.8,30.09,NW,325,5.2,5.8,80,0.00,,---,0.00,VWS V14.01,2013-03-13 10:35:00,
2013-03-13 06:40:00,51.3,45.1,30.09,North,349,2.8,5.5,79,0.00,,---,0.00,VWS V14.01,2013-03-13 10:40:00,
2013-03-13 06:45:00,51.0,44.8,30.10,NNW,333,3.2,5.3,79,0.00,,---,0.00,VWS V14.01,2013-03-13 10:45:00,
2013-03-13 06:50:00,50.7,44.6,30.10,NNW,340,2.4,3.7,79,0.00,,---,0.00,VWS V14.01,2013-03-13 10:50:00,
2013-03-13 06:55:00,50.8,44.7,30.10,NW,319,0.7,4.5,79,0.00,,---,0.00,VWS V14.01,2013-03-13 10:55:00,
2013-03-13 07:00:00,50.9,44.8,30.10,NW,326,3.5,3.8,79,0.00,,---,0.00,VWS V14.01,2013-03-13 11:00:00,
2013-03-13 07:05:00,50.2,44.2,30.10,NW,325,3.8,4.3,80,0.00,,---,0.00,VWS V14.01,2013-03-13 11:05:00,
2013-03-13 07:10:00,50.8,45.0,30.10,NW,323,2.3,3.8,80,0.00,,---,0.00,VWS V14.01,2013-03-13 11:10:00,
2013-03-13 07:15:00,50.7,44.6,30.11,NW,325,2.3,2.5,80,0.00,,---,0.00,VWS V14.01,2013-03-13 11:15:00,
2013-03-13 07:20:00,50.8,44.7,30.11,NW,323,2.5,2.9,79,0.00,,---,0.00,VWS V14.01,2013-03-13 11:20:00,
2013-03-13 07:25:00,49.7,43.6,30.12,NW,326,3.0,3.5,79,0.00,,---,0.00,VWS V14.01,2013-03-13 11:25:00,
2013-03-13 07:30:00,49.5,43.4,30.12,NW,312,3.3,4.1,80,0.00,,---,0.00,VWS V14.01,2013-03-13 11:30:00,
2013-03-13 07:35:00,50.3,44.3,30.12,NW,316,1.4,3.7,80,0.00,,---,0.00,VWS V14.01,2013-03-13 11:35:00,
2013-03-13 07:40:00,49.7,44.0,30.12,NW,314,2.4,2.4,80,0.00,,---,0.00,VWS V14.01,2013-03-13 11:40:00,
2013-03-13 07:45:00,49.0,43.2,30.12,NW,311,2.6,5.7,80,0.00,,---,0.00,VWS V14.01,2013-03-13 11:45:00,
2013-03-13 07:50:00,49.6,43.7,30.12,NW,316,3.0,6.0,80,0.00,,---,0.00,VWS V14.01,2013-03-13 11:50:00,
2013-03-13 07:55:00,49.7,43.8,30.13,NNW,347,2.9,5.8,80,0.00,,---,0.00,VWS V14.01,2013-03-13 11:55:00,
2013-03-13 08:00:00,49.8,43.8,30.13,NW,322,2.5,4.4,80,0.00,,---,0.00,VWS V14.01,2013-03-13 12:00:00,
2013-03-13 08:05:00,49.8,43.7,30.12,NNW,338,6.8,6.8,79,0.00,,---,0.00,VWS V14.01,2013-03-13 12:05:00,
2013-03-13 08:10:00,49.7,43.6,30.13,NNW,347,5.3,6.0,80,0.00,,---,0.00,VWS V14.01,2013-03-13 12:10:00,
2013-03-13 08:15:00,50.5,44.3,30.13,NNW,339,2.7,4.3,79,0.00,,---,0.00,VWS V14.01,2013-03-13 12:15:00,
2013-03-13 08:20:00,50.5,44.0,30.13,NNW,332,3.7,7.0,78,0.00,,---,0.00,VWS V14.01,2013-03-13 12:20:00,
2013-03-13 08:25:00,50.6,44.0,30.13,NW,325,6.5,8.3,78,0.00,,---,0.00,VWS V14.01,2013-03-13 12:25:00,
2013-03-13 08:30:00,50.9,44.0,30.14,NNW,328,6.8,8.7,77,0.00,,---,0.00,VWS V14.01,2013-03-13 12:30:00,
2013-03-13 08:35:00,50.4,43.2,30.13,NNW,339,6.8,9.1,76,0.00,,---,0.00,VWS V14.01,2013-03-13 12:35:00,
2013-03-13 08:40:00,51.1,43.4,30.14,NNW,330,7.3,11.9,75,0.00,,---,0.00,VWS V14.01,2013-03-13 12:40:00,
2013-03-13 08:45:00,51.1,43.1,30.14,NNW,336,5.2,10.8,74,0.00,,---,0.00,VWS V14.01,2013-03-13 12:45:00,
2013-03-13 08:50:00,51.8,43.4,30.14,North,7,5.7,8.9,73,0.00,,---,0.00,VWS V14.01,2013-03-13 12:50:00,
2013-03-13 08:55:00,52.2,43.8,30.14,NNW,336,10.7,11.8,73,0.00,,---,0.00,VWS V14.01,2013-03-13 12:55:00,
2013-03-13 09:00:00,51.6,42.9,30.14,North,354,6.1,8.9,72,0.00,,---,0.00,VWS V14.01,2013-03-13 13:00:00,
2013-03-13 09:04:00,52.0,42.8,30.15,NW,323,7.7,9.8,71,0.00,,---,0.00,VWS V14.01,2013-03-13 13:04:00,
2013-03-13 09:09:00,52.2,42.7,30.15,North,350,6.0,12.5,70,0.00,,---,0.00,VWS V14.01,2013-03-13 13:09:00,
2013-03-13 09:14:00,52.4,42.7,30.15,NNW,328,10.9,12.1,69,0.00,,---,0.00,VWS V14.01,2013-03-13 13:14:00,
2013-03-13 09:19:00,53.5,43.4,30.15,NNW,333,9.4,9.4,68,0.00,,---,0.00,VWS V14.01,2013-03-13 13:19:00,
2013-03-13 09:24:00,53.7,43.0,30.15,North,352,9.3,12.8,67,0.00,,---,0.00,VWS V14.01,2013-03-13 13:24:00,
2013-03-13 09:29:00,54.4,43.9,30.15,North,354,6.6,8.6,68,0.00,,---,0.00,VWS V14.01,2013-03-13 13:29:00,
2013-03-13 09:34:00,54.6,43.1,30.14,NNW,346,9.8,9.8,65,0.00,,---,0.00,VWS V14.01,2013-03-13 13:34:00,
2013-03-13 09:39:00,54.6,42.3,30.15,NNE,30,7.9,16.1,63,0.00,,---,0.00,VWS V14.01,2013-03-13 13:39:00,
2013-03-13 09:45:00,55.3,43.0,30.15,NNW,342,5.5,8.4,63,0.00,,---,0.00,VWS V14.01,2013-03-13 13:45:00,
2013-03-13 09:50:00,55.8,42.4,30.15,North,4,7.5,12.2,61,0.00,,---,0.00,VWS V14.01,2013-03-13 13:50:00,
2013-03-13 09:55:00,55.8,41.9,30.15,NW,318,7.4,12.7,59,0.00,,---,0.00,VWS V14.01,2013-03-13 13:55:00,
2013-03-13 10:00:00,56.7,41.2,30.15,North,359,9.1,13.6,56,0.00,,---,0.00,VWS V14.01,2013-03-13 14:00:00,
2013-03-13 10:05:00,56.7,40.6,30.15,North,349,7.4,13.4,55,0.00,,---,0.00,VWS V14.01,2013-03-13 14:05:00,
2013-03-13 10:10:00,57.5,41.1,30.15,NNW,343,6.4,13.9,54,0.00,,---,0.00,VWS V14.01,2013-03-13 14:10:00,
2013-03-13 10:15:00,57.4,41.4,30.15,North,11,4.9,9.2,55,0.00,,---,0.00,VWS V14.01,2013-03-13 14:15:00,
2013-03-13 10:20:00,57.7,39.6,30.15,NW,323,9.1,11.9,51,0.00,,---,0.00,VWS V14.01,2013-03-13 14:20:00,
2013-03-13 10:25:00,58.6,40.2,30.15,NNW,346,8.8,14.5,50,0.00,,---,0.00,VWS V14.01,2013-03-13 14:25:00,
2013-03-13 10:30:00,58.7,40.1,30.15,NNW,343,14.4,17.1,50,0.00,,---,0.00,VWS V14.01,2013-03-13 14:30:00,
2013-03-13 10:35:00,59.0,40.2,30.15,NNW,338,5.6,10.6,50,0.00,,---,0.00,VWS V14.01,2013-03-13 14:35:00,
2013-03-13 10:40:00,59.4,39.6,30.15,NNW,339,10.8,14.7,48,0.00,,---,0.00,VWS V14.01,2013-03-13 14:40:00,
2013-03-13 10:45:00,59.6,39.3,30.15,NNW,339,9.1,13.0,47,0.00,,---,0.00,VWS V14.01,2013-03-13 14:45:00,
2013-03-13 10:50:00,60.4,40.2,30.15,North,352,7.5,8.9,47,0.00,,---,0.00,VWS V14.01,2013-03-13 14:50:00,
2013-03-13 10:55:00,61.0,40.0,30.15,NNW,347,4.7,9.8,46,0.00,,---,0.00,VWS V14.01,2013-03-13 14:55:00,
2013-03-13 11:00:00,61.5,39.8,30.15,NW,323,7.5,9.8,45,0.00,,---,0.00,VWS V14.01,2013-03-13 15:00:00,
2013-03-13 11:05:00,61.6,38.7,30.15,NW,326,7.9,9.9,43,0.00,,---,0.00,VWS V14.01,2013-03-13 15:05:00,
2013-03-13 11:10:00,61.8,37.9,30.15,NNE,21,4.5,8.6,41,0.00,,---,0.00,VWS V14.01,2013-03-13 15:10:00,
2013-03-13 11:15:00,63.2,39.3,30.15,NNW,332,7.0,9.0,41,0.00,,---,0.00,VWS V14.01,2013-03-13 15:15:00,
2013-03-13 11:20:00,62.8,38.0,30.15,NNW,342,10.7,10.9,40,0.00,,---,0.00,VWS V14.01,2013-03-13 15:20:00,
2013-03-13 11:25:00,63.7,36.5,30.16,North,7,7.0,11.1,36,0.00,,---,0.00,VWS V14.01,2013-03-13 15:25:00,
2013-03-13 11:30:00,63.9,36.2,30.15,NNW,338,4.7,10.6,36,0.00,,---,0.00,VWS V14.01,2013-03-13 15:30:00,
2013-03-13 11:35:00,63.8,35.7,30.15,NNW,335,7.2,10.6,35,0.00,,---,0.00,VWS V14.01,2013-03-13 15:35:00,
2013-03-13 11:40:00,64.4,35.2,30.15,North,353,9.5,10.9,34,0.00,,---,0.00,VWS V14.01,2013-03-13 15:40:00,
2013-03-13 11:45:00,64.8,36.0,30.15,North,357,9.3,11.6,34,0.00,,---,0.00,VWS V14.01,2013-03-13 15:45:00,
2013-03-13 11:50:00,65.1,34.1,30.15,NW,319,7.9,13.5,31,0.00,,---,0.00,VWS V14.01,2013-03-13 15:50:00,
2013-03-13 11:55:00,66.3,34.0,30.15,NNW,345,8.8,11.9,30,0.00,,---,0.00,VWS V14.01,2013-03-13 15:55:00,
2013-03-13 12:00:00,65.6,32.8,30.15,North,10,12.1,12.2,29,0.00,,---,0.00,VWS V14.01,2013-03-13 16:00:00,
2013-03-13 12:05:00,67.3,33.8,30.15,NE,44,8.2,13.0,29,0.00,,---,0.00,VWS V14.01,2013-03-13 16:05:00,
2013-03-13 12:10:00,67.2,32.8,30.15,North,352,8.3,15.4,28,0.00,,---,0.00,VWS V14.01,2013-03-13 16:10:00,
2013-03-13 12:15:00,67.8,33.7,30.15,NNW,347,6.7,15.5,28,0.00,,---,0.00,VWS V14.01,2013-03-13 16:15:00,
2013-03-13 12:20:00,68.2,33.1,30.15,NW,311,8.0,13.4,27,0.00,,---,0.00,VWS V14.01,2013-03-13 16:20:00,
2013-03-13 12:25:00,68.2,34.1,30.15,NNW,347,5.7,7.5,28,0.00,,---,0.00,VWS V14.01,2013-03-13 16:25:00,
2013-03-13 12:30:00,68.1,31.8,30.16,North,1,10.1,11.7,26,0.00,,---,0.00,VWS V14.01,2013-03-13 16:30:00,
2013-03-13 12:35:00,68.5,32.1,30.15,NNW,343,10.8,13.1,26,0.00,,---,0.00,VWS V14.01,2013-03-13 16:35:00,
2013-03-13 12:40:00,69.1,31.4,30.16,NW,308,12.4,15.7,25,0.00,,---,0.00,VWS V14.01,2013-03-13 16:40:00,
2013-03-13 12:45:00,68.4,32.6,30.16,NNE,17,7.0,11.4,26,0.00,,---,0.00,VWS V14.01,2013-03-13 16:45:00,
2013-03-13 12:50:00,68.4,32.4,30.15,North,349,10.5,10.8,26,0.00,,---,0.00,VWS V14.01,2013-03-13 16:50:00,
2013-03-13 12:55:00,69.6,31.0,30.15,North,356,7.9,15.8,24,0.00,,---,0.00,VWS V14.01,2013-03-13 16:55:00,
2013-03-13 13:00:00,69.6,33.1,30.15,NNW,338,8.1,10.9,26,0.00,,---,0.00,VWS V14.01,2013-03-13 17:00:00,
2013-03-13 13:05:00,70.5,32.8,30.15,North,356,10.6,12.1,25,0.00,,---,0.00,VWS V14.01,2013-03-13 17:05:00,
2013-03-13 13:10:00,70.0,31.1,30.15,North,1,12.6,18.3,24,0.00,,---,0.00,VWS V14.01,2013-03-13 17:10:00,
2013-03-13 13:15:00,70.5,32.6,30.15,NNE,13,3.1,8.1,25,0.00,,---,0.00,VWS V14.01,2013-03-13 17:15:00,
2013-03-13 13:20:00,69.6,30.4,30.15,NNE,25,8.9,13.0,23,0.00,,---,0.00,VWS V14.01,2013-03-13 17:20:00,
2013-03-13 13:25:00,70.1,32.5,30.15,North,0,9.5,12.1,25,0.00,,---,0.00,VWS V14.01,2013-03-13 17:25:00,
2013-03-13 13:30:00,70.3,31.2,30.15,NNW,335,5.1,13.2,23,0.00,,---,0.00,VWS V14.01,2013-03-13 17:30:00,
2013-03-13 13:35:00,70.2,33.5,30.14,NNW,339,9.6,12.3,26,0.00,,---,0.00,VWS V14.01,2013-03-13 17:35:00,
2013-03-13 13:40:00,70.7,33.3,30.14,NNE,13,9.3,9.4,25,0.00,,---,0.00,VWS V14.01,2013-03-13 17:40:00,
2013-03-13 13:45:00,71.6,31.3,30.14,NNW,332,7.5,8.3,22,0.00,,---,0.00,VWS V14.01,2013-03-13 17:45:00,
2013-03-13 13:49:00,72.6,33.2,30.14,WNW,297,10.2,12.2,24,0.00,,---,0.00,VWS V14.01,2013-03-13 17:49:00,
2013-03-13 13:54:00,72.2,32.2,30.14,NW,325,9.9,11.4,23,0.00,,---,0.00,VWS V14.01,2013-03-13 17:54:00,
2013-03-13 14:00:00,72.0,31.6,30.13,NNW,336,8.5,13.5,22,0.00,,---,0.00,VWS V14.01,2013-03-13 18:00:00,
2013-03-13 14:05:00,72.5,33.1,30.13,NNW,347,10.9,10.9,23,0.00,,---,0.00,VWS V14.01,2013-03-13 18:05:00,
2013-03-13 14:10:00,72.2,30.9,30.13,North,4,12.8,14.0,22,0.00,,---,0.00,VWS V14.01,2013-03-13 18:10:00,
2013-03-13 14:15:00,72.3,29.1,30.13,NNE,20,8.6,14.2,20,0.00,,---,0.00,VWS V14.01,2013-03-13 18:15:00,
2013-03-13 14:19:00,72.0,29.4,30.13,NW,321,6.2,14.7,20,0.00,,---,0.00,VWS V14.01,2013-03-13 18:19:00,
2013-03-13 14:24:00,72.2,31.4,30.12,NW,322,9.4,9.8,22,0.00,,---,0.00,VWS V14.01,2013-03-13 18:24:00,
2013-03-13 14:29:00,72.0,29.4,30.12,NW,325,10.2,12.0,20,0.00,,---,0.00,VWS V14.01,2013-03-13 18:29:00,
2013-03-13 14:35:00,72.4,29.5,30.12,NNW,343,8.0,14.2,20,0.00,,---,0.00,VWS V14.01,2013-03-13 18:35:00,
2013-03-13 14:39:00,72.9,31.6,30.11,North,354,7.9,10.1,22,0.00,,---,0.00,VWS V14.01,2013-03-13 18:39:00,
2013-03-13 14:44:00,72.8,30.6,30.11,North,349,5.8,9.4,21,0.00,,---,0.00,VWS V14.01,2013-03-13 18:44:00,
2013-03-13 14:49:00,73.0,30.9,30.10,North,359,4.0,7.7,21,0.00,,---,0.00,VWS V14.01,2013-03-13 18:49:00,
2013-03-13 14:54:00,73.5,28.4,30.10,North,8,4.5,10.3,19,0.00,,---,0.00,VWS V14.01,2013-03-13 18:54:00,
2013-03-13 14:59:00,73.4,28.3,30.10,North,349,10.5,13.9,19,0.00,,---,0.00,VWS V14.01,2013-03-13 18:59:00,
2013-03-13 15:04:00,72.4,29.2,30.10,WNW,300,9.7,11.9,20,0.00,,---,0.00,VWS V14.01,2013-03-13 19:04:00,
2013-03-13 15:09:00,73.0,30.4,30.10,NNE,14,5.7,10.7,21,0.00,,---,0.00,VWS V14.01,2013-03-13 19:09:00,
2013-03-13 15:14:00,73.7,30.5,30.10,NNW,333,10.4,12.3,20,0.00,,---,0.00,VWS V14.01,2013-03-13 19:14:00,
2013-03-13 15:19:00,73.2,28.6,30.09,West,269,7.1,10.7,19,0.00,,---,0.00,VWS V14.01,2013-03-13 19:19:00,
2013-03-13 15:24:00,74.6,30.4,30.09,NW,307,10.3,12.2,20,0.00,,---,0.00,VWS V14.01,2013-03-13 19:24:00,
2013-03-13 15:29:00,74.4,30.3,30.09,North,357,2.4,6.8,20,0.00,,---,0.00,VWS V14.01,2013-03-13 19:29:00,
2013-03-13 15:34:00,74.1,29.6,30.09,NNW,343,0.0,0.0,19,0.00,,---,0.00,VWS V14.01,2013-03-13 19:34:00,
2013-03-13 15:39:00,74.8,30.2,30.09,NNW,328,6.6,9.1,19,0.00,,---,0.00,VWS V14.01,2013-03-13 19:39:00,
2013-03-13 15:44:00,74.5,31.0,30.08,NW,305,2.8,13.3,20,0.00,,---,0.00,VWS V14.01,2013-03-13 19:44:00,
2013-03-13 15:49:00,74.7,29.9,30.08,WNW,297,6.3,8.7,19,0.00,,---,0.00,VWS V14.01,2013-03-13 19:49:00,
2013-03-13 15:54:00,74.8,30.2,30.08,WNW,291,4.4,7.3,19,0.00,,---,0.00,VWS V14.01,2013-03-13 19:54:00,
2013-03-13 15:59:00,74.7,29.9,30.08,West,273,3.5,10.3,19,0.00,,---,0.00,VWS V14.01,2013-03-13 19:59:00,
2013-03-13 16:04:00,74.9,30.0,30.08,West,269,3.7,5.8,19,0.00,,---,0.00,VWS V14.01,2013-03-13 20:04:00,
2013-03-13 16:09:00,75.1,26.0,30.08,NNW,347,3.5,8.8,16,0.00,,---,0.00,VWS V14.01,2013-03-13 20:09:00,
2013-03-13 16:14:00,74.1,27.0,30.08,WSW,255,8.9,12.2,17,0.00,,---,0.00,VWS V14.01,2013-03-13 20:14:00,
2013-03-13 16:19:00,74.8,30.1,30.08,SW,217,5.5,13.9,19,0.00,,---,0.00,VWS V14.01,2013-03-13 20:19:00,
2013-03-13 16:24:00,74.6,29.0,30.08,West,278,5.0,11.2,18,0.00,,---,0.00,VWS V14.01,2013-03-13 20:24:00,
2013-03-13 16:29:00,74.6,29.5,30.07,WSW,240,5.4,9.4,19,0.00,,---,0.00,VWS V14.01,2013-03-13 20:29:00,
2013-03-13 16:34:00,74.4,28.0,30.07,NW,315,3.7,9.4,18,0.00,,---,0.00,VWS V14.01,2013-03-13 20:34:00,
2013-03-13 16:39:00,74.8,28.4,30.07,SSW,210,10.1,10.5,18,0.00,,---,0.00,VWS V14.01,2013-03-13 20:39:00,
2013-03-13 16:44:00,74.7,26.7,30.07,SW,232,7.1,10.7,17,0.00,,---,0.00,VWS V14.01,2013-03-13 20:44:00,
2013-03-13 16:49:00,74.8,25.8,30.06,SW,235,14.7,15.2,16,0.00,,---,0.00,VWS V14.01,2013-03-13 20:49:00,
2013-03-13 16:54:00,75.2,27.4,30.06,NW,321,7.6,14.2,17,0.00,,---,0.00,VWS V14.01,2013-03-13 20:54:00,
2013-03-13 16:59:00,74.8,27.2,30.06,WNW,285,7.1,10.2,17,0.00,,---,0.00,VWS V14.01,2013-03-13 20:59:00,
2013-03-13 17:04:00,74.9,27.0,30.07,WSW,249,8.1,14.4,17,0.00,,---,0.00,VWS V14.01,2013-03-13 21:04:00,
2013-03-13 17:09:00,74.4,24.7,30.07,West,269,12.7,19.5,16,0.00,,---,0.00,VWS V14.01,2013-03-13 21:09:00,
2013-03-13 17:14:00,74.0,26.0,30.07,West,281,10.8,10.8,17,0.00,,---,0.00,VWS V14.01,2013-03-13 21:14:00,
2013-03-13 17:19:00,74.4,25.5,30.07,West,262,8.6,9.9,16,0.00,,---,0.00,VWS V14.01,2013-03-13 21:19:00,
2013-03-13 17:24:00,73.5,25.3,30.06,NW,318,4.6,11.1,16,0.00,,---,0.00,VWS V14.01,2013-03-13 21:24:00,
2013-03-13 17:29:00,74.1,25.7,30.06,WSW,249,5.9,9.9,16,0.00,,---,0.00,VWS V14.01,2013-03-13 21:29:00,
2013-03-13 17:34:00,74.5,26.7,30.06,West,269,5.2,7.3,17,0.00,,---,0.00,VWS V14.01,2013-03-13 21:34:00,
2013-03-13 17:39:00,74.2,26.5,30.06,WSW,250,4.7,5.6,17,0.00,,---,0.00,VWS V14.01,2013-03-13 21:39:00,
2013-03-13 17:44:00,74.0,24.2,30.06,NW,311,11.7,12.2,16,0.00,,---,0.00,VWS V14.01,2013-03-13 21:44:00,
2013-03-13 17:49:00,73.7,24.5,30.06,NW,321,7.2,8.0,16,0.00,,---,0.00,VWS V14.01,2013-03-13 21:49:00,
2013-03-13 17:54:00,73.7,25.8,30.06,NW,307,3.2,4.8,17,0.00,,---,0.00,VWS V14.01,2013-03-13 21:54:00,
2013-03-13 17:59:00,74.1,24.9,30.06,WNW,291,4.2,8.8,16,0.00,,---,0.00,VWS V14.01,2013-03-13 21:59:00,
2013-03-13 18:04:00,74.1,24.3,30.06,WNW,285,6.8,9.6,16,0.00,,---,0.00,VWS V14.01,2013-03-13 22:04:00,
2013-03-13 18:09:00,73.1,23.2,30.06,WNW,285,5.5,8.6,15,0.00,,---,0.00,VWS V14.01,2013-03-13 22:09:00,
2013-03-13 18:14:00,73.3,22.9,30.06,NW,309,3.1,7.1,15,0.00,,---,0.00,VWS V14.01,2013-03-13 22:14:00,
2013-03-13 18:19:00,73.2,23.6,30.07,WNW,302,5.5,7.5,16,0.00,,---,0.00,VWS V14.01,2013-03-13 22:19:00,
2013-03-13 18:24:00,72.9,24.1,30.07,NNW,346,5.8,9.3,16,0.00,,---,0.00,VWS V14.01,2013-03-13 22:24:00,
2013-03-13 18:29:00,72.5,25.0,30.06,NW,312,5.0,5.4,17,0.00,,---,0.00,VWS V14.01,2013-03-13 22:29:00,
2013-03-13 18:34:00,72.1,24.6,30.06,NNW,342,4.0,7.3,17,0.00,,---,0.00,VWS V14.01,2013-03-13 22:34:00,
2013-03-13 18:39:00,71.7,25.0,30.06,WNW,297,0.0,2.9,17,0.00,,---,0.00,VWS V14.01,2013-03-13 22:39:00,
2013-03-13 18:44:00,72.8,25.5,30.06,WNW,291,3.5,5.1,17,0.00,,---,0.00,VWS V14.01,2013-03-13 22:44:00,
2013-03-13 18:49:00,72.7,25.7,30.06,NW,318,5.9,7.5,17,0.00,,---,0.00,VWS V14.01,2013-03-13 22:49:00,
2013-03-13 18:54:00,72.4,25.9,30.06,NW,318,6.6,7.6,18,0.00,,---,0.00,VWS V14.01,2013-03-13 22:54:00,
2013-03-13 18:59:00,71.7,25.8,30.06,NNW,345,7.7,9.5,18,0.00,,---,0.00,VWS V14.01,2013-03-13 22:59:00,
2013-03-13 19:04:00,71.5,25.4,30.06,NW,321,5.7,8.2,18,0.00,,---,0.00,VWS V14.01,2013-03-13 23:04:00,
2013-03-13 19:09:00,71.0,25.5,30.07,NNW,346,3.2,6.4,18,0.00,,---,0.00,VWS V14.01,2013-03-13 23:09:00,
2013-03-13 19:14:00,70.8,26.3,30.07,NNW,328,5.4,5.4,19,0.00,,---,0.00,VWS V14.01,2013-03-13 23:14:00,
2013-03-13 19:19:00,70.3,26.1,30.07,NW,318,2.5,6.4,19,0.00,,---,0.00,VWS V14.01,2013-03-13 23:19:00,
2013-03-13 19:24:00,69.9,27.2,30.07,NW,307,0.0,0.0,20,0.00,,---,0.00,VWS V14.01,2013-03-13 23:24:00,
2013-03-13 19:29:00,69.5,27.7,30.07,WNW,302,0.0,0.0,21,0.00,,---,0.00,VWS V14.01,2013-03-13 23:29:00,
2013-03-13 19:34:00,70.0,28.5,30.07,WNW,302,0.0,0.0,21,0.00,,---,0.00,VWS V14.01,2013-03-13 23:34:00,
2013-03-13 19:39:00,69.5,28.8,30.07,WNW,302,0.0,0.0,22,0.00,,---,0.00,VWS V14.01,2013-03-13 23:39:00,
2013-03-13 19:44:00,68.8,28.9,30.07,WNW,302,0.0,0.0,22,0.00,,---,0.00,VWS V14.01,2013-03-13 23:44:00,
2013-03-13 19:49:00,68.8,29.1,30.08,WNW,302,0.0,0.0,23,0.00,,---,0.00,VWS V14.01,2013-03-13 23:49:00,
2013-03-13 19:54:00,68.5,29.9,30.08,WNW,302,0.0,0.0,24,0.00,,---,0.00,VWS V14.01,2013-03-13 23:54:00,
2013-03-13 19:59:00,68.4,29.9,30.08,NW,314,0.0,0.0,24,0.00,,---,0.00,VWS V14.01,2013-03-13 23:59:00,
2013-03-13 20:04:00,67.9,30.1,30.08,NW,321,0.0,0.0,24,0.00,,---,0.00,VWS V14.01,2013-03-14 00:04:00,
2013-03-13 20:09:00,66.8,29.7,30.08,West,270,0.0,0.0,25,0.00,,---,0.00,VWS V14.01,2013-03-14 00:09:00,
2013-03-13 20:14:00,67.5,30.6,30.08,West,270,0.0,0.0,25,0.00,,---,0.00,VWS V14.01,2013-03-14 00:14:00,
2013-03-13 20:19:00,67.1,30.6,30.09,West,270,0.0,0.0,26,0.00,,---,0.00,VWS V14.01,2013-03-14 00:19:00,
2013-03-13 20:24:00,66.9,30.8,30.09,West,270,0.0,0.0,26,0.00,,---,0.00,VWS V14.01,2013-03-14 00:24:00,
2013-03-13 20:29:00,66.0,30.6,30.10,NW,315,2.7,5.5,26,0.00,,---,0.00,VWS V14.01,2013-03-14 00:29:00,
2013-03-13 20:34:00,65.9,32.3,30.10,West,260,8.2,10.3,28,0.00,,---,0.00,VWS V14.01,2013-03-14 00:34:00,
2013-03-13 20:39:00,65.7,35.9,30.10,West,273,3.2,7.5,33,0.00,,---,0.00,VWS V14.01,2013-03-14 00:39:00,
2013-03-13 20:44:00,65.4,37.8,30.11,West,280,7.6,10.1,36,0.00,,---,0.00,VWS V14.01,2013-03-14 00:44:00,
2013-03-13 20:49:00,65.6,39.8,30.11,NW,308,5.7,5.7,39,0.00,,---,0.00,VWS V14.01,2013-03-14 00:49:00,
2013-03-13 20:54:00,65.2,40.6,30.12,NNW,345,2.2,3.5,40,0.00,,---,0.00,VWS V14.01,2013-03-14 00:54:00,
2013-03-13 20:59:00,64.8,40.4,30.13,NNW,343,0.0,0.7,41,0.00,,---,0.00,VWS V14.01,2013-03-14 00:59:00,
2013-03-13 21:04:00,64.2,39.3,30.13,NNE,25,0.7,0.7,40,0.00,,---,0.00,VWS V14.01,2013-03-14 01:04:00,
2013-03-13 21:09:00,63.5,39.7,30.13,North,354,2.3,4.2,41,0.00,,---,0.00,VWS V14.01,2013-03-14 01:09:00,
2013-03-13 21:14:00,63.2,40.0,30.14,NNE,17,0.0,0.0,42,0.00,,---,0.00,VWS V14.01,2013-03-14 01:14:00,
2013-03-13 21:19:00,61.5,39.1,30.14,NNE,30,0.0,0.0,44,0.00,,---,0.00,VWS V14.01,2013-03-14 01:19:00,
2013-03-13 21:24:00,62.1,40.4,30.14,NNE,30,0.0,0.0,45,0.00,,---,0.00,VWS V14.01,2013-03-14 01:24:00,
2013-03-13 21:29:00,62.2,40.7,30.14,West,266,0.0,0.0,45,0.00,,---,0.00,VWS V14.01,2013-03-14 01:29:00,
2013-03-13 21:34:00,61.5,40.2,30.14,West,266,0.0,0.0,45,0.00,,---,0.00,VWS V14.01,2013-03-14 01:34:00,
2013-03-13 21:39:00,61.6,40.9,30.15,NNW,332,0.7,2.1,46,0.00,,---,0.00,VWS V14.01,2013-03-14 01:39:00,
2013-03-13 21:44:00,61.8,41.2,30.15,NNW,336,5.4,6.6,47,0.00,,---,0.00,VWS V14.01,2013-03-14 01:44:00,
2013-03-13 21:49:00,61.2,40.7,30.15,NNE,18,1.2,2.5,47,0.00,,---,0.00,VWS V14.01,2013-03-14 01:49:00,
2013-03-13 21:54:00,60.9,40.7,30.15,North,349,4.2,4.8,47,0.00,,---,0.00,VWS V14.01,2013-03-14 01:54:00,
2013-03-13 21:59:00,61.0,41.2,30.15,North,352,2.1,2.2,48,0.00,,---,0.00,VWS V14.01,2013-03-14 01:59:00,
2013-03-13 22:04:00,60.5,41.0,30.16,North,350,2.6,3.4,48,0.00,,---,0.00,VWS V14.01,2013-03-14 02:04:00,
2013-03-13 22:09:00,59.9,40.7,30.16,NNW,333,3.5,3.5,49,0.00,,---,0.00,VWS V14.01,2013-03-14 02:09:00,
2013-03-13 22:14:00,60.5,41.3,30.16,NW,321,2.1,3.8,49,0.00,,---,0.00,VWS V14.01,2013-03-14 02:14:00,
2013-03-13 22:19:00,60.5,41.4,30.16,NNW,333,3.6,5.9,49,0.00,,---,0.00,VWS V14.01,2013-03-14 02:19:00,
2013-03-13 22:24:00,60.5,41.4,30.16,WNW,283,3.6,7.3,49,0.00,,---,0.00,VWS V14.01,2013-03-14 02:24:00,
2013-03-13 22:29:00,60.4,41.5,30.16,WNW,288,1.9,3.0,50,0.00,,---,0.00,VWS V14.01,2013-03-14 02:29:00,
2013-03-13 22:34:00,59.7,41.0,30.16,WNW,291,1.9,4.8,50,0.00,,---,0.00,VWS V14.01,2013-03-14 02:34:00,
2013-03-13 22:39:00,59.5,41.0,30.17,WNW,295,4.1,5.5,50,0.00,,---,0.00,VWS V14.01,2013-03-14 02:39:00,
2013-03-13 22:44:00,59.5,41.3,30.17,WNW,295,3.9,3.9,51,0.00,,---,0.00,VWS V14.01,2013-03-14 02:44:00,
2013-03-13 22:49:00,59.5,41.6,30.17,WNW,302,4.4,4.6,51,0.00,,---,0.00,VWS V14.01,2013-03-14 02:49:00,
2013-03-13 22:54:00,59.1,41.5,30.17,WNW,287,2.1,2.8,52,0.00,,---,0.00,VWS V14.01,2013-03-14 02:54:00,
2013-03-13 22:59:00,58.6,41.2,30.17,West,281,3.4,4.3,52,0.00,,---,0.00,VWS V14.01,2013-03-14 02:59:00,
2013-03-13 23:04:00,59.2,42.1,30.17,WNW,290,5.7,6.3,53,0.00,,---,0.00,VWS V14.01,2013-03-14 03:04:00,
2013-03-13 23:09:00,59.1,42.1,30.17,NW,307,3.6,5.2,53,0.00,,---,0.00,VWS V14.01,2013-03-14 03:09:00,
2013-03-13 23:14:00,58.5,41.8,30.17,WNW,302,1.4,2.7,54,0.00,,---,0.00,VWS V14.01,2013-03-14 03:14:00,
2013-03-13 23:19:00,59.0,42.5,30.18,WNW,300,3.1,3.9,54,0.00,,---,0.00,VWS V14.01,2013-03-14 03:19:00,
2013-03-13 23:24:00,58.9,42.5,30.18,West,273,0.0,0.0,54,0.00,,---,0.00,VWS V14.01,2013-03-14 03:24:00,
2013-03-13 23:29:00,58.7,42.5,30.18,NW,308,5.2,5.2,55,0.00,,---,0.00,VWS V14.01,2013-03-14 03:29:00,
2013-03-13 23:34:00,58.2,42.1,30.18,NW,307,2.5,2.9,55,0.00,,---,0.00,VWS V14.01,2013-03-14 03:34:00,
2013-03-13 23:39:00,58.4,42.5,30.18,NW,319,0.0,0.0,55,0.00,,---,0.00,VWS V14.01,2013-03-14 03:39:00,
2013-03-13 23:44:00,58.1,42.5,30.18,NW,319,0.0,0.0,56,0.00,,---,0.00,VWS V14.01,2013-03-14 03:44:00,
2013-03-13 23:49:00,58.1,42.8,30.18,NNW,343,0.0,0.0,57,0.00,,---,0.00,VWS V14.01,2013-03-14 03:49:00,
2013-03-13 23:54:00,57.3,42.3,30.18,NNW,343,0.0,0.0,57,0.00,,---,0.00,VWS V14.01,2013-03-14 03:54:00,